Flag for Cameroon Weather past 2 weeks in Bamenda, Cameroon

Now
86 °F

Scattered clouds.


Feels Like: 99 °F
Forecast: 63 / 79 °F
Wind: 9 mph from Southwest

Location: Douala Obs.

Current Time: May 22, 2015 at 6:52:40 PM

Latest Report: May 22, 2015 at 6:00 PM


Visibility: N/A

Pressure: 29.83 "Hg

Humidity: 79%

Dew point: 79 °F

Location of BamendaLocation

Historic Weather in Bamenda — Graph

°F

Bamenda temperature yesterday

Maximum temperature yesterday: 88 °F (at 2:00 PM)
Minimum temperature yesterday: 73 °F (at 7:00 AM)
Average temperature yesterday: 81 °F

Past Weeks' High & Low Weather Summary

 TemperatureHumidityPressure
High93 °F (May 11, 2:00 PM)100% (May 9, 6:00 AM)29.98 "Hg (May 9, 6:00 AM)
Low73 °F (May 10, 7:00 AM)53% (May 13, 2:00 PM)29.74 "Hg (May 13, 5:00 PM)
Average82 °F84%29.86 "Hg
* Reported May 7 6:00 PM — May 22 6:00 PM, Bamenda, Weather by CustomWeather, © 2015

Note: Actual official high and low records may vary slightly from our data, if they occured in-between our weather recording intervals... More about our weather records

Advertising

Bamenda weather history for previous 24 hours

 ConditionsComfort  
Time TempWeatherWind HumidityBarometerVisibility
6:00 PM
Fri, May 22
86 °FScattered clouds.9 mph79%29.83 "HgN/A
5:00 PM88 °FScattered clouds.9 mph70%29.83 "HgN/A
4:00 PM88 °FScattered clouds.9 mph66%29.83 "HgN/A
3:00 PM91 °FScattered clouds.9 mph63%29.83 "HgN/A
2:00 PM91 °FPartly sunny.7 mph59%29.86 "HgN/A
1:00 PM93 °FPartly sunny.5 mph56%29.89 "HgN/A
12:00 PM90 °FPartly sunny.7 mph63%29.92 "HgN/A
11:00 AM88 °FPartly sunny.9 mph70%29.92 "HgN/A
10:00 AM86 °FPartly sunny.No wind79%29.95 "HgN/A
9:00 AM84 °FPartly sunny.5 mph84%29.95 "HgN/A
8:00 AM82 °FBroken clouds.No wind84%29.92 "HgN/A
7:00 AM79 °FBroken clouds.No wind94%29.89 "HgN/A
6:00 AM77 °FPassing clouds.No wind100%29.89 "Hg4 mi
5:00 AM77 °FPartly cloudy.No wind100%29.89 "Hg4 mi
4:00 AM79 °FPartly cloudy.No wind94%29.89 "Hg5 mi
3:00 AM79 °FPartly cloudy.No wind94%29.86 "Hg5 mi
2:00 AM79 °FPassing clouds.No wind94%29.89 "Hg5 mi
1:00 AM79 °FPassing clouds.No wind100%29.89 "Hg5 mi
12:00 AM79 °FPassing clouds.No wind94%29.89 "HgN/A
11:00 PM
Thu, May 21
79 °FPassing clouds.No wind94%29.92 "HgN/A
10:00 PM79 °FPassing clouds.No wind94%29.89 "HgN/A
9:00 PM81 °FPassing clouds.No wind89%29.89 "HgN/A
8:00 PM81 °FThunderstorms. Passing clouds.No wind94%29.86 "HgN/A
7:00 PM82 °FThunderstorms. Passing clouds.7 mph89%29.86 "HgN/A
6:00 PM84 °FThunderstorms. Partly sunny.5 mph84%29.86 "HgN/A
Weather by CustomWeather, © 2015

See weather overviewHow to use our weather pages